This demonstration page uses our WeatherBlox Daily Observations layout. Learn more.

Left ArrowRight Arrow

39.92423, -83.80882

Hourly Observations for January 15, 2017

Temp ( °F °C ) Dew Point ( °F °C ) Humidity (%) Winds ( mph kmh ) Pressure ( in mb ) Visibility ( mi km ) Precip ( " mm )
12:09 am 00:09 Cloudy with Mist and Fog 30 -1 30 -1 100 100 NW 5 7 30.45 1031 1.25 2.011675 0 0
12:56 am 00:56 Cloudy with Mist and Fog 31 -0.6 30 -1.1 96 96 N 7 11 30.44 1031 2 3.21868 0 0
1:38 am 01:38 Cloudy with Mist and Fog 30 -1 30 -1 100 100 NNW 6 9 30.45 1031 2.5 4.02335 0 0
1:56 am 01:56 Cloudy with Mist and Fog 31 -0.6 30 -1.1 96 96 NNW 6 9 30.43 1031 2 3.21868 0 0
2:56 am 02:56 Cloudy with Mist and Fog 30 -1.1 29 -1.7 96 96 N 8 13 30.45 1031 2.5 4.02335 0 0
3:23 am 03:23 Cloudy with Mist and Fog 30 -1 28 -2 93 93 N 8 13 30.48 1032 4 6.43736 0 0
3:40 am 03:40 Cloudy with Mist and Fog 28 -2 28 -2 100 100 N 9 15 30.48 1032 5 8.0467 0 0
3:56 am 03:56 Cloudy with Mist and Fog 29 -1.7 28 -2.2 96 96 N 6 9 30.45 1031 5 8.0467 0 0
4:56 am 04:56 Cloudy with Mist and Fog 28 -2.2 27 -2.8 96 96 N 3 6 30.45 1031 4 6.43736 0 0
5:56 am 05:56 Cloudy with Mist and Fog 27 -2.8 26 -3.3 96 96 N 3 6 30.46 1031 4 6.43736 0 0
6:31 am 06:31 Cloudy with Mist and Fog 27 -3 27 -3 100 100 NNE 6 9 30.45 1031 4 6.43736 0 0
6:56 am 06:56 Mostly Cloudy with Mist and Fog 27 -2.8 26 -3.3 96 96 NNE 5 7 30.45 1031 3 4.82802 0 0
7:03 am 07:03 Mostly Clear with Mist and Fog 27 -3 27 -3 100 100 NE 3 6 30.45 1031 3 4.82802 0 0
7:54 am 07:54 Mostly Cloudy with Mist and Fog 27 -3 27 -3 100 100 Calm 30.48 1032 2 3.21868 0 0
7:56 am 07:56 Mostly Cloudy with Mist and Fog 27 -2.8 26 -3.3 96 96 Calm 30.46 1031 2 3.21868 0 0
8:56 am 08:56 Cloudy with Mist and Fog 28 -2.2 27 -2.8 96 96 NNE 5 7 30.47 1032 2 3.21868 0 0
9:12 am 09:12 Mostly Cloudy with Mist and Fog 28 -2 28 -2 100 100 ENE 6 9 30.48 1032 3 4.82802 0 0
9:28 am 09:28 Cloudy with Mist and Fog 28 -2 28 -2 100 100 E 6 9 30.48 1032 4 6.43736 0 0
9:56 am 09:56 Mostly Cloudy with Mist and Fog 29 -1.7 28 -2.2 96 96 ENE 8 13 30.45 1031 4 6.43736 0 0
10:16 am 10:16 Partly Cloudy with Mist and Fog 30 -1 28 -2 93 93 ENE 8 13 30.48 1032 4 6.43736 0 0
10:56 am 10:56 Mostly Cloudy with Mist and Fog 30 -1.1 28 -2.2 92 92 E 5 7 30.46 1032 5 8.0467 0 0
11:56 am 11:56 Cloudy with Mist and Fog 31 -0.6 28 -2.2 89 89 ESE 7 11 30.44 1031 5 8.0467 0 0
1:16 pm 13:16 Cloudy with Mist and Fog 30 -1 28 -2 93 93 ESE 5 7 30.42 1030 6 9.65604 0 0
1:56 pm 13:56 Cloudy with Mist and Fog 32 0 28 -2.2 85 85 E 6 9 30.38 1029 6 9.65604 0 0
2:19 pm 14:19 Cloudy with Mist and Fog 32 0 28 -2 87 87 ESE 3 6 30.36 1028 6 9.65604 0 0
2:34 pm 14:34 Cloudy with Mist and Fog 32 0 28 -2 87 87 ENE 5 7 30.36 1028 5 8.0467 0 0
2:56 pm 14:56 Cloudy with Mist and Fog 32 0 29 -1.7 88 88 E 5 7 30.38 1029 4 6.43736 0 0
3:56 pm 15:56 Cloudy with Mist and Fog 33 0.6 30 -1.1 89 89 ENE 7 11 30.38 1029 4 6.43736 0 0
4:56 pm 16:56 Cloudy with Mist and Fog 33 0.6 30 -1.1 89 89 E 6 9 30.39 1029 4 6.43736 0 0
5:56 pm 17:56 Cloudy with Mist and Fog 32 0 30 -1.1 92 92 ESE 6 9 30.38 1029 3 4.82802 0 0
6:56 pm 18:56 Cloudy with Mist and Fog 32 0 31 -0.6 96 96 E 6 9 30.38 1029 4 6.43736 0 0
7:38 pm 19:38 Cloudy with Mist and Fog 32 0 30 -1 93 93 E 7 11 30.36 1028 3 4.82802 0 0
7:54 pm 19:54 Cloudy with Mist and Fog 32 0 30 -1 93 93 ENE 6 9 30.36 1028 2.5 4.02335 0 0
7:56 pm 19:56 Cloudy with Mist and Fog 32 0 31 -0.6 96 96 ENE 7 11 30.39 1029 2.5 4.02335 0 0
8:56 pm 20:56 Cloudy with Mist and Fog 33 0.6 31 -0.6 92 92 E 7 11 30.38 1029 2.5 4.02335 0 0
9:03 pm 21:03 Cloudy with Mist and Fog 34 1 30 -1 87 87 E 6 9 30.36 1028 3 4.82802 0 0
9:51 pm 21:51 Cloudy with Mist and Fog 34 1 30 -1 87 87 E 6 9 30.36 1028 3 4.82802 0 0
9:56 pm 21:56 Cloudy with Mist and Fog 33 0.6 31 -0.6 92 92 E 7 11 30.37 1029 3 4.82802 0 0
10:56 pm 22:56 Cloudy with Mist and Fog 33 0.6 32 0 96 96 ESE 6 9 30.37 1029 4 6.43736 0 0
11:52 pm 23:52 Partly Cloudy with Mist and Fog 32 0 30 -1 93 93 E 8 13 30.36 1028 3 4.82802 0 0
11:56 pm 23:56 Mostly Clear with Mist and Fog 32 0 31 -0.6 96 96 E 8 13 30.35 1028 3 4.82802 0 0

Powered by AerisWeather